TimeEEST,TemperatureF,Dew PointF,Humidity,Sea Level PressureIn,VisibilityMPH,Wind Direction,Wind SpeedMPH,Gust SpeedMPH,PrecipitationIn,Events,Conditions,WindDirDegrees,DateUTC
7:50 AM,68.0,55.4,64,29.95,-9999.0,NW,5.8,-,N/A,,Clear,310,2012-10-12 04:50:00
8:50 AM,73.4,57.2,57,29.95,-9999.0,NW,6.9,-,N/A,,Clear,310,2012-10-12 05:50:00
9:20 AM,75.2,57.2,53,29.95,-9999.0,NW,6.9,-,N/A,,Clear,310,2012-10-12 06:20:00
9:50 AM,77.0,55.4,47,29.98,-9999.0,WNW,10.4,-,N/A,,Clear,300,2012-10-12 06:50:00
10:20 AM,77.0,55.4,47,29.98,-9999.0,WNW,10.4,-,N/A,,Clear,300,2012-10-12 07:20:00
10:50 AM,77.0,55.4,47,29.98,-9999.0,WNW,9.2,-,N/A,,Clear,290,2012-10-12 07:50:00
11:20 AM,77.0,55.4,47,29.98,-9999.0,WNW,9.2,-,N/A,,Clear,290,2012-10-12 08:20:00
11:50 AM,77.0,55.4,47,29.98,-9999.0,West,9.2,-,N/A,,Clear,280,2012-10-12 08:50:00
12:20 PM,77.0,55.4,47,29.98,-9999.0,West,9.2,-,N/A,,Clear,280,2012-10-12 09:20:00
12:50 PM,80.6,53.6,39,29.98,6.2,WNW,10.4,-,N/A,,Scattered Clouds,290,2012-10-12 09:50:00
1:20 PM,80.6,53.6,39,29.98,6.2,WNW,10.4,-,N/A,,Scattered Clouds,290,2012-10-12 10:20:00
1:50 PM,80.6,53.6,39,29.98,6.2,West,11.5,-,N/A,,Scattered Clouds,280,2012-10-12 10:50:00
2:20 PM,80.6,53.6,39,29.98,-9999.0,West,11.5,-,N/A,,Clear,280,2012-10-12 11:20:00
2:50 PM,78.8,53.6,42,29.98,-9999.0,West,12.7,-,N/A,,Clear,260,2012-10-12 11:50:00
3:50 PM,78.8,53.6,42,29.98,-9999.0,West,10.4,-,N/A,,Clear,280,2012-10-12 12:50:00
4:20 PM,78.8,53.6,42,29.98,-9999.0,West,10.4,-,N/A,,Clear,280,2012-10-12 13:20:00
4:50 PM,78.8,55.4,44,29.98,-9999.0,West,9.2,-,N/A,,Clear,280,2012-10-12 13:50:00
5:20 PM,78.8,55.4,44,29.98,-9999.0,West,9.2,-,N/A,,Clear,280,2012-10-12 14:20:00
5:50 PM,75.2,57.2,53,29.98,-9999.0,WNW,8.1,-,N/A,,Clear,300,2012-10-12 14:50:00
6:20 PM,75.2,57.2,53,29.98,-9999.0,WNW,8.1,-,N/A,,Clear,300,2012-10-12 15:20:00
6:50 PM,71.6,59.0,64,29.98,6.2,WNW,5.8,-,N/A,,Scattered Clouds,300,2012-10-12 15:50:00
7:20 PM,71.6,59.0,64,29.98,6.2,WNW,5.8,-,N/A,,Scattered Clouds,300,2012-10-12 16:20:00
7:50 PM,69.8,57.2,64,30.01,6.2,WNW,4.6,-,N/A,,Scattered Clouds,300,2012-10-12 16:50:00
8:20 PM,69.8,57.2,64,30.01,6.2,WNW,4.6,-,N/A,,Scattered Clouds,300,2012-10-12 17:20:00
8:50 PM,69.8,57.2,64,30.01,6.2,WNW,4.6,-,N/A,,Scattered Clouds,300,2012-10-12 17:50:00